Weather History for Indiana, PA

Change the Weather History Date:

Monday, November 4, 2013

  Actual Average Record
Temperature  
Mean Temperature 28 °F -  
Max Temperature 32 °F 55 °F 82 °F (2003)
Min Temperature 26 °F 35 °F 17 °F (1991)
Degree Days  
Heating Degree Days 37    
Moisture  
Dew Point 19 °F    
Average Humidity 67    
Maximum Humidity 69    
Minimum Humidity 51    
Precipitation  
Precipitation 0.00 in - - ()
Sea Level Pressure  
Sea Level Pressure 30.51 in    
Wind  
Wind Speed 5 mph (East)    
Max Wind Speed 8 mph    
Max Gust Speed -    
Averages and records for this station are not official NWS values.
T = Trace of Precipitation, MM = Missing Value Source: NWS Daily Summary

Daily Weather History Graph

Daily Weather History Graph

Search for Another Location

Airport:

Trip Planner

Search our weather history database for the weather conditions in past years. The results will help you decide how hot, cold, wet, or windy it might be!

Date:

Astronomy

Nov. 04, 2013 Rise Set
Actual Time 6:50 AM EST 5:09 PM EST
Civil Twilight 6:21 AM EST 5:37 PM EST
Nautical Twilight 5:49 AM EST 6:10 PM EST
Astronomical Twilight 5:17 AM EST 6:42 PM EST
Moon 7:59 AM EST (11/4) 6:11 PM EST (11/4)
Length of Visible Light 11h 15m
Length of Day
10h 18m
New Moon, 2% of the Moon is Illuminated
Nov 4
New Moon
Nov 10
First Quarter
Nov 17
Full
Nov 25
Last Quarter
Dec 2
New

Hourly Weather History & Observations

Time (EST) Temp. Windchill Dew Point Humidity Pressure Visibility Wind Dir Wind Speed Gust Speed Precip Events Conditions
12:15 AM 30.2 °F 26.7 °F 21.2 °F 69% 30.46 in - East 3.5 mph - N/A   Unknown
12:35 AM 30.2 °F 24.3 °F 21.2 °F 69% 30.46 in - East 5.8 mph - N/A   Unknown
12:55 AM 30.2 °F 25.4 °F 21.2 °F 69% 30.47 in - East 4.6 mph - N/A   Unknown
1:15 AM 30.2 °F 23.4 °F 21.2 °F 69% 30.47 in - East 6.9 mph - N/A   Unknown
1:35 AM 30.2 °F 24.3 °F 21.2 °F 69% 30.48 in - East 5.8 mph - N/A   Unknown
1:55 AM 28.4 °F 21.2 °F 19.4 °F 69% 30.49 in - East 6.9 mph - N/A   Unknown
2:15 AM 28.4 °F 22.2 °F 19.4 °F 69% 30.50 in - East 5.8 mph - N/A   Unknown
2:35 AM 28.4 °F 24.6 °F 19.4 °F 69% 30.50 in - East 3.5 mph - N/A   Unknown
2:55 AM 28.4 °F 24.6 °F 19.4 °F 69% 30.50 in - East 3.5 mph - N/A   Unknown
3:15 AM 28.4 °F 24.6 °F 19.4 °F 69% 30.50 in - East 3.5 mph - N/A   Unknown
3:35 AM 28.4 °F 24.6 °F 19.4 °F 69% 30.50 in - East 3.5 mph - N/A   Unknown
3:55 AM 28.4 °F 24.6 °F 19.4 °F 69% 30.50 in - East 3.5 mph - N/A   Unknown
4:15 AM 28.4 °F 23.3 °F 19.4 °F 69% 30.51 in - East 4.6 mph - N/A   Unknown
4:35 AM 28.4 °F 22.2 °F 19.4 °F 69% 30.50 in - East 5.8 mph - N/A   Unknown
4:55 AM 28.4 °F 22.2 °F 19.4 °F 69% 30.50 in - East 5.8 mph - N/A   Unknown
5:15 AM 28.4 °F 22.2 °F 17.6 °F 64% 30.52 in - ESE 5.8 mph - N/A   Unknown
5:35 AM 26.6 °F 20.0 °F 17.6 °F 69% 30.51 in - East 5.8 mph - N/A   Unknown
5:55 AM 26.6 °F 20.0 °F 17.6 °F 69% 30.52 in - East 5.8 mph - N/A   Unknown
6:15 AM 26.6 °F 22.6 °F 17.6 °F 69% 30.53 in - East 3.5 mph - N/A   Unknown
6:35 AM 26.6 °F 20.0 °F 17.6 °F 69% 30.54 in - East 5.8 mph - N/A   Unknown
6:55 AM 26.6 °F 19.1 °F 17.6 °F 69% 30.53 in - East 6.9 mph - N/A   Unknown
7:15 AM 26.6 °F 20.0 °F 17.6 °F 69% 30.53 in - ESE 5.8 mph - N/A   Unknown
7:35 AM 28.4 °F 21.2 °F 19.4 °F 69% 30.55 in - ESE 6.9 mph - N/A   Unknown
7:55 AM 28.4 °F 20.4 °F 17.6 °F 64% 30.54 in - East 8.1 mph - N/A   Unknown
8:15 AM 30.2 °F 23.4 °F 17.6 °F 60% 30.56 in - ESE 6.9 mph - N/A   Unknown
8:35 AM 30.2 °F 22.6 °F 17.6 °F 60% 30.56 in - ESE 8.1 mph - N/A   Unknown
8:55 AM 32.0 °F 25.6 °F 15.8 °F 51% 30.56 in - ESE 6.9 mph - N/A   Unknown